カタログに戻る

STARLINK-33872

運用中通信VLEO
NORAD 64189·PAYLOAD·🇺🇸 United States

打ち上げ May 28, 2025 から Cape Canaveral Space Force Station

Loading…

次のパス (今後24時間)

TLE

最新Source: CelesTrak SupGP

元期: Sep 15, 2026, 02:16 UTC

1 64189C 25113V   26258.09493056  .00015016  00000+0  44359-3 0  2587
2 64189  53.1588 286.8205 0001323  87.0876  66.8960 15.34388288    12

AllMySatでSTARLINK-33872をリアルタイム追跡

Download on the App Store